STARLINK-35378

Last updated on Mon Oct 20 2025 00:02:07 GMT+0000 (Coordinated Universal Time)

1 65794U 25218D 25292.26537830 .00137854 00000+0 24853-2 0 9994 2 65794 97.6023 152.8360 0002257 108.1136 252.0361 15.49265868 3647
UTC large
Height (km)
Speed (km/s)
/
Latitude / Longitude
Inclination (degrees)
Orbital Period (minutes)
Azimuth
Elevation
Range (km)
Doppler Factor

Next 0 passes for location: London (51.5072 / 0.1276)

Sorry there are no passes over London.